SCP
0 0 0 0 0 0 0 0 0 0 0 0 0 0 0 0 0 0 0 0 0 0 0 0 0 0 0 0 0 0 0 0 0 0 0 0 0 0
0 0 0 0 0 0 0 0 0 0 0 0 0 0 0 0 0 0 0 0 0 0 0 0 0 0 0 0 0 0 0 0 0 0 0 0 0 0
0 0 0 0 0 0 0 0 0 0 0 0 0 0 0 0 0 0 0 0 0 0 0 0 0 0 0 0 0 0 0 0 0 0 0 0 0 0
0 0 0 0 0 0 0 0 0 0 0 0 0 0 0 0 0 0 0 0 0 0 0 0 0 0 0 0 0 0 0 0 0 0 0 0 0 0
0 0 0 0 0 0 0 0 0 0 0 0 0 0 0 0 0 0 0 0 0 0 0 0 0 0 0 0 0 0 0 0 0 0 0 0 -0 0
0 0 0 0 0 0 0 0 0 0 0 0 0 0 0 0 0 0 0 0 0 0 0 0 0 0 0 0 0 0 0 0 0 0 0 0 0 0
0 0 0 0 0 0 0 0 0 0 0 0 0 0 0 0 0 0 0 0 0 0 0 0 0 0 0 0 0 0 0 0 0 0 0 0 0 0
0 0 0 0 0 0 0 0 0 0 0 0 0 0 0 0 0 0 0 0 0 0 0 0 0 0 0 0 0 0 0 0 0 0 0 0 0 0
0 0 0 0 0 0 0 0 0 0 0 0 0 0 0 0 0 0 0 0 0 0 0 0 0 0 0 0 0 0 0 0 0 0 0 0 0 0
0 0 0 0 0 0 0 0 0 0 0 0 0 0 0 0 0 0 0 0 0 0 0 0 0 0 0 0 0 0 0 0 0 0 0 0 0 0
0 0 0 0 0 0 0 0 0 0 0 0 0 0 0 0 0 0 0 0 0 0 0 0 0 0 0 0 0 0 0 0 0 0 0 0 0 0
0 0 0 0 0 0 0 0 0 0 0 0 0 0 0 0 0 0 0 0 0 0 0 0 0 0 0 0 0 0 0 0 0 0 0 0 0 0
0 0 0 0 0 0 0 0 0 0 0 0 0 0 0 0 0 0 0 0 0 0 0 0 0 0 0 0 0 0 0 0 0 0 0 0 0 0
0 0 0 0 0 0 0 0 0 0 0 0 0 0 0 0 0 0 0 0 0 0 0 0 0 0 0 0 0 0 0 0 0 0 0 0 0 0
0 0 0 0 0 0 0 0 0 0 0 0 0 0 0 0 0 0 0 0 0 0 0 0 0 0 0 0 0 0 0 0 0 0 0 0 0 0
0 0 0 0 0 0 0 0 0 0 0 0 0 0 0 0 0 0 0 0 0 0 0 0 0 0 0 0 0 0 0 0 0 0 0 0 0 0
-0 0 0 0 0 0 0 0 0 0 0 0 0 0 0 0 0 0 0 0 0 0 0 0 0 0 0 0 0 0 0 0 0 0 0 0 0 0
-0 -0 0 0 0 0 0 0 0 0 0 0 0 0 0 0 0 0 0 0 0 0 0 0 0 0 0 0 0 0 0 0 0 0 0 0 0 0
-0 -0 0 0 0 0 0 0 0 0 0 0 0 0 0 0 0 0 0 0 0 0 0 0 0 0 0 0 0 0 0 0 0 0 0 0 0 0
0 -0 0 0 0 0 0 0 0 0 0 0 0 0 0 0 0 0 0 0 0 0 0 0 0 0 0 0 0 0 0 0 0 0 0 0 0 0
0 0 0 -0 0 0 0 0 0 0 0 0 0 0 0 0 0 0 0 0 0 0 0 0 0 0 0 0 0 0 0 0 0 0 0 0 0 0
0 0 0 -0 -0 0 0 0 0 0 0 0 0 0 0 0 0 0 0 0 0 0 0 0 0 0 0 0 0 0 0 0 0 0 0 0 0 0
-0 0 -0 0 0 0 -0 0 0 0 0 0 0 0 0 0 0 0 0 0 0 0 0 0 0 0 0 0 0 0 0 0 0 0 0 0 0 0
Wind_Speed_500mb
69 71 80 79 76 83 90 86 92 74 78 65 69 76 67 72 70 63 63 63 67 66 70 70 73 72 71 81 86 91 90 85 87 84 71 63 75 88
59 68 73 74 79 85 84 84 92 100 94 79 83 80 80 83 77 73 69 62 64 64 68 74 78 73 74 78 81 83 82 81 61 62 58 62 74 90
56 54 60 68 77 77 83 84 94 82 101 96 89 89 84 85 85 80 79 72 70 71 74 75 78 78 84 87 80 75 46 52 53 60 63 62 64 66
67 69 73 70 62 67 78 79 96 84 94 101 88 87 87 85 79 80 79 73 73 69 69 75 81 77 83 59 45 55 58 62 60 61 63 57 53 68
66 70 75 76 80 79 66 70 84 83 90 94 98 93 89 89 89 84 69 72 77 71 67 66 78 68 45 42 56 53 54 54 52 52 50 53 55 71
74 71 73 74 76 79 89 89 77 68 77 83 91 79 84 82 76 68 73 68 62 62 67 60 62 46 50 52 58 53 53 58 53 57 56 48 52 78
80 80 77 74 76 74 77 85 96 93 86 69 66 70 87 82 63 60 62 80 52 60 67 54 53 60 62 59 55 53 52 52 57 52 47 43 50 71
92 89 84 82 80 78 77 75 78 88 98 92 84 74 72 71 62 61 67 48 70 49 56 52 63 60 59 61 57 53 52 55 54 50 51 52 59 72
90 93 93 86 82 83 83 82 80 78 87 86 89 96 87 74 69 77 71 70 69 59 61 50 67 68 62 57 54 56 53 57 53 54 63 62 65 71
89 91 92 90 81 80 79 85 88 84 81 82 89 99 92 81 69 70 65 63 70 65 63 63 66 72 63 57 57 57 59 58 54 57 65 67 68 62
93 93 92 92 83 74 79 85 92 91 77 68 67 73 75 73 65 62 68 61 63 69 62 58 60 58 57 65 67 69 67 58 56 61 66 67 62 58
89 90 92 90 84 76 78 81 92 90 75 64 65 66 67 67 67 68 67 69 73 64 66 63 68 65 53 64 67 68 66 57 52 56 60 61 61 63
80 88 87 84 78 75 73 77 82 77 73 64 63 65 67 71 65 63 57 60 63 71 52 61 75 64 57 42 71 69 64 61 58 59 62 64 65 66
82 80 74 71 69 70 71 72 68 64 62 57 57 60 58 54 49 56 63 68 66 67 61 64 65 73 80 52 59 70 64 60 63 70 70 65 64 64
75 67 66 58 45 32 28 37 42 43 43 43 46 47 46 48 50 52 53 58 56 63 64 62 61 57 69 69 65 64 73 70 66 68 74 77 75 70
71 55 45 34 26 26 25 24 19 16 17 25 32 36 36 37 44 47 47 51 55 55 52 50 54 59 62 64 57 62 77 73 79 75 78 74 69 65
57 52 54 58 56 53 50 47 39 30 24 23 21 19 19 21 27 30 28 33 35 39 43 47 50 51 51 56 56 58 73 74 74 82 78 75 67 59
56 62 67 69 71 69 66 62 57 50 44 33 25 22 17 8 2 8 12 17 13 21 26 29 35 39 43 44 39 54 67 68 69 77 77 76 68 61
58 63 66 67 68 66 64 62 62 57 48 42 37 33 27 22 20 15 7 5 9 18 23 24 28 32 36 30 28 44 56 59 67 71 67 64 61 56
60 61 62 63 64 63 61 60 56 52 50 47 42 40 36 32 24 23 19 16 10 14 19 21 22 21 26 31 33 41 36 47 61 64 60 53 46 43
59 58 57 57 56 56 56 54 53 52 49 45 42 40 37 34 32 27 21 19 18 18 18 18 16 12 18 26 34 43 41 41 44 49 49 47 46 46
55 56 56 55 54 54 52 51 50 50 49 46 43 39 36 33 30 25 23 21 19 16 14 13 15 16 14 20 32 39 40 41 42 44 38 41 41 33
54 53 53 53 53 52 51 51 49 48 45 43 42 40 37 34 29 24 21 16 11 7 5 3 5 9 10 14 20 26 32 35 37 40 42 43 41 35
Wind_Direction_500mb
286 284 274 277 281 279 276 274 263 264 268 271 269 280 280 279 276 273 262 259 256 255 255 253 247 246 248 250 249 248 249 252 253 251 256 240 229 238
288 290 286 285 280 277 272 278 269 265 266 270 267 271 279 281 278 274 269 269 262 257 255 254 249 249 250 251 250 249 249 251 246 244 232 222 224 222
283 286 287 288 287 284 280 276 270 272 265 274 268 271 276 278 283 278 271 267 263 257 257 256 251 249 250 250 248 249 249 243 242 234 238 238 239 235
285 279 277 279 289 294 283 282 279 273 275 274 272 269 269 280 280 281 275 271 268 264 261 259 258 259 256 256 256 241 245 244 243 241 239 236 238 228
297 292 287 282 280 279 290 291 280 282 274 275 275 270 270 274 276 275 273 272 275 275 267 281 262 260 234 250 238 237 241 244 238 238 231 226 221 220
303 298 293 290 285 279 275 277 279 285 280 270 274 267 275 271 264 270 283 275 269 273 276 273 264 228 231 236 236 242 240 235 236 230 225 227 220 212
307 303 298 293 288 285 282 277 273 277 275 278 284 273 269 256 269 268 269 281 276 270 269 261 234 231 233 236 244 241 240 234 233 222 215 211 223 220
311 306 303 300 297 292 286 278 274 273 273 276 275 279 279 278 277 281 275 264 261 271 260 259 238 237 243 238 243 235 232 229 214 209 209 212 225 215
311 309 306 303 302 299 295 287 277 268 265 269 271 268 270 274 274 272 268 270 272 275 264 260 252 235 237 233 233 236 226 216 211 208 210 217 219 211
311 310 307 305 304 303 302 295 289 281 273 269 263 265 266 264 265 266 270 268 263 260 259 248 249 232 233 235 236 231 222 214 213 209 212 214 210 208
311 308 307 304 303 299 293 291 291 286 286 282 263 260 260 258 262 261 258 252 252 250 244 235 236 226 228 234 227 227 219 211 210 211 213 215 215 210
315 309 305 303 302 294 290 290 286 286 290 283 272 260 259 259 258 253 248 250 241 247 236 230 227 220 221 226 223 219 212 208 212 210 209 207 206 205
323 321 316 309 301 293 286 284 283 286 282 275 271 267 261 257 256 252 245 245 246 240 251 238 231 226 216 217 215 208 205 205 200 202 204 206 210 210
332 327 322 315 304 294 288 283 281 279 277 274 269 266 264 261 258 251 244 236 235 239 243 238 232 237 221 199 193 200 201 202 202 200 201 206 209 211
337 324 316 312 305 311 302 294 286 278 279 280 279 274 263 260 253 248 243 231 229 235 235 233 233 225 219 215 204 199 195 198 199 200 198 201 202 202
346 343 338 334 344 354 348 358 355 345 323 301 292 286 278 265 253 242 236 230 227 222 221 221 220 220 217 220 221 205 201 194 197 199 201 203 207 213
356 2 12 19 21 25 28 27 27 22 20 17 354 331 307 274 246 235 235 226 221 212 208 208 211 215 212 216 201 204 198 198 201 199 201 197 197 201
3 16 20 24 26 24 23 27 31 34 36 40 46 56 52 28 233 198 206 217 233 204 197 189 189 190 188 186 198 196 195 193 191 192 193 193 188 188
15 19 20 20 21 24 25 25 26 30 33 39 42 51 61 66 55 53 80 130 152 175 179 180 180 187 176 158 173 188 193 189 185 185 189 192 190 191
16 16 17 16 16 17 19 20 21 24 29 33 37 40 44 49 57 57 64 81 121 156 169 171 186 194 201 183 168 174 185 187 184 187 184 188 189 194
12 12 10 10 11 11 12 14 17 19 22 25 30 33 37 42 50 54 62 75 101 113 131 138 141 160 192 188 172 166 167 180 189 191 190 194 198 204
7 6 6 6 6 6 5 5 7 9 14 18 21 23 25 26 32 37 46 57 69 81 96 113 129 143 158 159 157 169 175 184 191 191 198 206 203 208
360 0 0 360 0 1 1 3 4 4 4 6 9 13 13 17 19 18 14 19 27 27 26 87 143 169 170 166 171 185 187 191 194 197 201 207 217 221
Wind_Speed_850mb
69 71 80 79 76 83 90 86 92 74 78 65 69 76 67 72 70 63 63 63 67 66 70 70 73 72 71 81 86 91 90 85 87 84 71 63 75 88
59 68 73 74 79 85 84 84 92 100 94 79 83 80 80 83 77 73 69 62 64 64 68 74 78 73 74 78 81 83 82 81 61 62 58 62 74 90
56 54 60 68 77 77 83 84 94 82 101 96 89 89 84 85 85 80 79 72 70 71 74 75 78 78 84 87 80 75 46 52 53 60 63 62 64 66
67 69 73 70 62 67 78 79 96 84 94 101 88 87 87 85 79 80 79 73 73 69 69 75 81 77 83 59 45 55 58 62 60 61 63 57 53 68
66 70 75 76 80 79 66 70 84 83 90 94 98 93 89 89 89 84 69 72 77 71 67 66 78 68 45 42 56 53 54 54 52 52 50 53 55 71
74 71 73 74 76 79 89 89 77 68 77 83 91 79 84 82 76 68 73 68 62 62 67 60 62 46 50 52 58 53 53 58 53 57 56 48 52 78
80 80 77 74 76 74 77 85 96 93 86 69 66 70 87 82 63 60 62 80 52 60 67 54 53 60 62 59 55 53 52 52 57 52 47 43 50 71
92 89 84 82 80 78 77 75 78 88 98 92 84 74 72 71 62 61 67 48 70 49 56 52 63 60 59 61 57 53 52 55 54 50 51 52 59 72
90 93 93 86 82 83 83 82 80 78 87 86 89 96 87 74 69 77 71 70 69 59 61 50 67 68 62 57 54 56 53 57 53 54 63 62 65 71
89 91 92 90 81 80 79 85 88 84 81 82 89 99 92 81 69 70 65 63 70 65 63 63 66 72 63 57 57 57 59 58 54 57 65 67 68 62
93 93 92 92 83 74 79 85 92 91 77 68 67 73 75 73 65 62 68 61 63 69 62 58 60 58 57 65 67 69 67 58 56 61 66 67 62 58
89 90 92 90 84 76 78 81 92 90 75 64 65 66 67 67 67 68 67 69 73 64 66 63 68 65 53 64 67 68 66 57 52 56 60 61 61 63
80 88 87 84 78 75 73 77 82 77 73 64 63 65 67 71 65 63 57 60 63 71 52 61 75 64 57 42 71 69 64 61 58 59 62 64 65 66
82 80 74 71 69 70 71 72 68 64 62 57 57 60 58 54 49 56 63 68 66 67 61 64 65 73 80 52 59 70 64 60 63 70 70 65 64 64
75 67 66 58 45 32 28 37 42 43 43 43 46 47 46 48 50 52 53 58 56 63 64 62 61 57 69 69 65 64 73 70 66 68 74 77 75 70
71 55 45 34 26 26 25 24 19 16 17 25 32 36 36 37 44 47 47 51 55 55 52 50 54 59 62 64 57 62 77 73 79 75 78 74 69 65
57 52 54 58 56 53 50 47 39 30 24 23 21 19 19 21 27 30 28 33 35 39 43 47 50 51 51 56 56 58 73 74 74 82 78 75 67 59
56 62 67 69 71 69 66 62 57 50 44 33 25 22 17 8 2 8 12 17 13 21 26 29 35 39 43 44 39 54 67 68 69 77 77 76 68 61
58 63 66 67 68 66 64 62 62 57 48 42 37 33 27 22 20 15 7 5 9 18 23 24 28 32 36 30 28 44 56 59 67 71 67 64 61 56
60 61 62 63 64 63 61 60 56 52 50 47 42 40 36 32 24 23 19 16 10 14 19 21 22 21 26 31 33 41 36 47 61 64 60 53 46 43
59 58 57 57 56 56 56 54 53 52 49 45 42 40 37 34 32 27 21 19 18 18 18 18 16 12 18 26 34 43 41 41 44 49 49 47 46 46
55 56 56 55 54 54 52 51 50 50 49 46 43 39 36 33 30 25 23 21 19 16 14 13 15 16 14 20 32 39 40 41 42 44 38 41 41 33
54 53 53 53 53 52 51 51 49 48 45 43 42 40 37 34 29 24 21 16 11 7 5 3 5 9 10 14 20 26 32 35 37 40 42 43 41 35
Wind_Direction_850mb
286 284 274 277 281 279 276 274 263 264 268 271 269 280 280 279 276 273 262 259 256 255 255 253 247 246 248 250 249 248 249 252 253 251 256 240 229 238
288 290 286 285 280 277 272 278 269 265 266 270 267 271 279 281 278 274 269 269 262 257 255 254 249 249 250 251 250 249 249 251 246 244 232 222 224 222
283 286 287 288 287 284 280 276 270 272 265 274 268 271 276 278 283 278 271 267 263 257 257 256 251 249 250 250 248 249 249 243 242 234 238 238 239 235
285 279 277 279 289 294 283 282 279 273 275 274 272 269 269 280 280 281 275 271 268 264 261 259 258 259 256 256 256 241 245 244 243 241 239 236 238 228
297 292 287 282 280 279 290 291 280 282 274 275 275 270 270 274 276 275 273 272 275 275 267 281 262 260 234 250 238 237 241 244 238 238 231 226 221 220
303 298 293 290 285 279 275 277 279 285 280 270 274 267 275 271 264 270 283 275 269 273 276 273 264 228 231 236 236 242 240 235 236 230 225 227 220 212
307 303 298 293 288 285 282 277 273 277 275 278 284 273 269 256 269 268 269 281 276 270 269 261 234 231 233 236 244 241 240 234 233 222 215 211 223 220
311 306 303 300 297 292 286 278 274 273 273 276 275 279 279 278 277 281 275 264 261 271 260 259 238 237 243 238 243 235 232 229 214 209 209 212 225 215
311 309 306 303 302 299 295 287 277 268 265 269 271 268 270 274 274 272 268 270 272 275 264 260 252 235 237 233 233 236 226 216 211 208 210 217 219 211
311 310 307 305 304 303 302 295 289 281 273 269 263 265 266 264 265 266 270 268 263 260 259 248 249 232 233 235 236 231 222 214 213 209 212 214 210 208
311 308 307 304 303 299 293 291 291 286 286 282 263 260 260 258 262 261 258 252 252 250 244 235 236 226 228 234 227 227 219 211 210 211 213 215 215 210
315 309 305 303 302 294 290 290 286 286 290 283 272 260 259 259 258 253 248 250 241 247 236 230 227 220 221 226 223 219 212 208 212 210 209 207 206 205
323 321 316 309 301 293 286 284 283 286 282 275 271 267 261 257 256 252 245 245 246 240 251 238 231 226 216 217 215 208 205 205 200 202 204 206 210 210
332 327 322 315 304 294 288 283 281 279 277 274 269 266 264 261 258 251 244 236 235 239 243 238 232 237 221 199 193 200 201 202 202 200 201 206 209 211
337 324 316 312 305 311 302 294 286 278 279 280 279 274 263 260 253 248 243 231 229 235 235 233 233 225 219 215 204 199 195 198 199 200 198 201 202 202
346 343 338 334 344 354 348 358 355 345 323 301 292 286 278 265 253 242 236 230 227 222 221 221 220 220 217 220 221 205 201 194 197 199 201 203 207 213
356 2 12 19 21 25 28 27 27 22 20 17 354 331 307 274 246 235 235 226 221 212 208 208 211 215 212 216 201 204 198 198 201 199 201 197 197 201
3 16 20 24 26 24 23 27 31 34 36 40 46 56 52 28 233 198 206 217 233 204 197 189 189 190 188 186 198 196 195 193 191 192 193 193 188 188
15 19 20 20 21 24 25 25 26 30 33 39 42 51 61 66 55 53 80 130 152 175 179 180 180 187 176 158 173 188 193 189 185 185 189 192 190 191
16 16 17 16 16 17 19 20 21 24 29 33 37 40 44 49 57 57 64 81 121 156 169 171 186 194 201 183 168 174 185 187 184 187 184 188 189 194
12 12 10 10 11 11 12 14 17 19 22 25 30 33 37 42 50 54 62 75 101 113 131 138 141 160 192 188 172 166 167 180 189 191 190 194 198 204
7 6 6 6 6 6 5 5 7 9 14 18 21 23 25 26 32 37 46 57 69 81 96 113 129 143 158 159 157 169 175 184 191 191 198 206 203 208
360 0 0 360 0 1 1 3 4 4 4 6 9 13 13 17 19 18 14 19 27 27 26 87 143 169 170 166 171 185 187 191 194 197 201 207 217 221